Regional Weather Roundup
Issued by NWS Sioux Falls, SD

Home | Current Version | Previous Version | Graphics & Text | Print | Product List | Glossary On
Versions: 1 2 3 4 5 6 7 8 9 10 11 12 13 14 15 16 17 18 19 20 21 22 23 24 25 26 27 28 29 30 31 32 33 34 35 36 37 38 39 40 41 42 43 44 45 46 47 48 49 50
000
ASUS43 KFSD 191810
RWRFSD

WEATHER ROUNDUP FOR SE SOUTH DAKOTA/SW MINNESOTA/NW IOWA
NATIONAL WEATHER SERVICE SIOUX FALLS SD
100 PM CDT SUN APR 19 2015

NOTE: "FAIR" INDICATES FEW OR NO CLOUDS BELOW 12,000 FEET WITH NO
SIGNIFICANT WEATHER AND OR OBSTRUCTIONS TO VISIBILITY.


SDZ038>040-050-052>070-191900-
SOUTHEAST SOUTH DAKOTA

CITY           SKY/WX    TMP DP  RH WIND       PRES   REMARKS
BROOKINGS      CLOUDY    48  39  71 NW21G29   29.79R
CHAMBERLAIN    PTSUNNY   50  31  49 NW24G33   29.90S
6HR MIN TEMP:  44; 6HR MAX TEMP:  52;

HURON          PTSUNNY   55  33  43 NW28G37   29.83F
6HR MIN TEMP:  45; 6HR MAX TEMP:  55;

MADISON        CLOUDY    48  43  81 NW26G35   29.80S
MITCHELL       CLOUDY    55  33  43 N25G37    29.84F
6HR MIN TEMP:  47; 6HR MAX TEMP:  56;

SIOUX FALLS    CLOUDY    50  41  71 NW22G33   29.78S
6HR MIN TEMP:  48; 6HR MAX TEMP:  53;

WINNER         CLOUDY    52  26  36 NW30G38   29.92F
YANKTON        CLOUDY    52  36  54 NW30G37   29.82S
$$

MNZ071-072-080-081-089-090-097-098-191900-
SOUTHWEST MINNESOTA

CITY           SKY/WX    TMP DP  RH WIND       PRES   REMARKS
FAIRMONT       CLOUDY    57  46  67 NW20G29   29.66F
JACKSON        CLOUDY    52  45  76 NW22G28   29.71S
LUVERNE        CLOUDY    50  43  76 N20G28    29.77R
MARSHALL       CLOUDY    48  37  66 N23G31    29.74S
6HR MIN TEMP:  48; 6HR MAX TEMP:  55;

MONTEVIDEO     CLOUDY    50  48  93 N20G26    29.73S
PIPESTONE      CLOUDY    48  43  81 N21G29    29.75F
REDWOOD FALLS  CLOUDY    52  46  80 NW13G24   29.69S
TRACY          CLOUDY    49  45  87 NW20G28   29.74S
WORTHINGTON    CLOUDY    50  43  76 NW23      29.73R
$$

IAZ001>003-012>014-020>022-031-032-NEZ013-014-SDZ071-191900-
NORTHWEST IOWA

CITY           SKY/WX    TMP DP  RH WIND       PRES   REMARKS
CHEROKEE       CLOUDY    54  49  82 NW16G31   29.71S
DENISON        RAIN      52  52 100 NW15      29.69F
ESTHERVILLE    CLOUDY    55  49  80 NW18G30   29.68F
LE MARS        CLOUDY    52  46  82 NW21G28   29.76F
ORANGE CITY    CLOUDY   N/A N/A N/A N20G25    29.74F
SHELDON        CLOUDY    50  50 100 NW22G30   29.72S
SIOUX CITY     CLOUDY    52  45  77 NW21G35   29.76S
6HR MIN TEMP:  50; 6HR MAX TEMP:  53; 6HR PCP: TRACE;

SPENCER        CLOUDY    55  48  77 N24       29.69F
6HR MIN TEMP:  53; 6HR MAX TEMP:  58;

STORM LAKE     RAIN      54  52  94 NW26      29.68F
$$

ABBREVIATIONS USED IN REMARKS
   TC - TEMPERATURE IN CELSIUS
  WCI - WIND CHILL INDEX
   HX - HEAT INDEX
  VSB - VISIBILITY




USA.gov is the U.S. government's official web portal to all federal, state and local government web resources and services.